Weather History for KMAO - December, 2011

Change the Weather History Date:

Friday, December 16, 2011

  Actual Average (KFLO) Record (KFLO)
Temperature  
Mean Temperature 64 °F 47 °F  
Max Temperature 75 °F 57 °F 78 °F (1948)
Min Temperature 53 °F 36 °F 16 °F (1958)
Degree Days  
Heating Degree Days 1 18  
Month to date heating degree days 264  
Since 1 July heating degree days 686  
Cooling Degree Days 0 0  
Month to date cooling degree days 0  
Year to date cooling degree days 2059  
Growing Degree Days 14 (Base 50)    
Moisture  
Dew Point 54 °F    
Average Humidity 74    
Maximum Humidity 100    
Minimum Humidity 50    
Precipitation  
Precipitation 0.00 in 0.10 in 2.22 in (1970)
Month to date precipitation 1.49  
Year to date precipitation 41.39  
Sea Level Pressure  
Sea Level Pressure 30.13 in    
Wind  
Wind Speed 6 mph (SW)    
Max Wind Speed 12 mph    
Max Gust Speed 20 mph    
Visibility 10 miles    
Events      
T = Trace of Precipitation, MM = Missing Value Source: NWS Daily Summary

Daily Weather History Graph

Daily Weather History Graph

Search for Another Location

Airport or City:

Trip Planner

Search our weather history database for the weather conditions in past years. The results will help you decide how hot, cold, wet, or windy it might be!

Date:

Astronomy

Dec. 16, 2011 Rise Set
Actual Time 7:16 AM EST 5:09 PM EST
Civil Twilight 6:48 AM EST 5:37 PM EST
Nautical Twilight 6:17 AM EST 6:08 PM EST
Astronomical Twilight 5:46 AM EST 6:39 PM EST
Moon 11:25 PM EST (12/16) 11:15 AM EST (12/16)
Length of Visible Light 10h 48m
Length of Day
9h 53m
Waning Gibbous, 65% of the Moon is Illuminated
Dec 16
Waning Gibbous
Dec 17
Last Quarter
Dec 24
New
Jan 1
First Quarter
Jan 9
Full

Hourly Weather History & Observations

Time (EST) Temp. Dew Point Humidity Pressure Visibility Wind Dir Wind Speed Gust Speed Precip Events Conditions
12:15 AM 59.0 °F 55.4 °F 88% 30.17 in 10.0 mi SSW 5.8 mph - N/A   Overcast
12:35 AM 60.8 °F 55.4 °F 82% 30.17 in 10.0 mi SSW 6.9 mph - N/A   Overcast
12:55 AM 60.8 °F 55.4 °F 82% 30.17 in 10.0 mi SSW 6.9 mph - N/A   Overcast
1:15 AM 60.8 °F 55.4 °F 82% 30.17 in 10.0 mi SSW 8.1 mph - N/A   Overcast
1:35 AM 60.8 °F 55.4 °F 82% 30.16 in 10.0 mi SSW 6.9 mph - N/A   Scattered Clouds
1:55 AM 60.8 °F 53.6 °F 77% 30.16 in 10.0 mi SSW 6.9 mph - N/A   Clear
2:15 AM 60.8 °F 53.6 °F 77% 30.16 in 10.0 mi SSW 6.9 mph - N/A   Clear
2:35 AM 59.0 °F 53.6 °F 82% 30.16 in 10.0 mi SSW 5.8 mph - N/A   Clear
2:55 AM 59.0 °F 53.6 °F 82% 30.16 in 10.0 mi SSW 6.9 mph - N/A   Clear
3:15 AM 59.0 °F 53.6 °F 82% 30.16 in 10.0 mi SW 3.5 mph - N/A   Clear
3:35 AM 55.4 °F 53.6 °F 94% 30.16 in 10.0 mi SW 3.5 mph - N/A   Clear
4:15 AM 55.4 °F 53.6 °F 94% 30.15 in 10.0 mi SSW 6.9 mph - N/A   Clear
4:35 AM 55.4 °F 53.6 °F 94% 30.15 in 10.0 mi SSW 6.9 mph - N/A   Clear
4:55 AM 55.4 °F 53.6 °F 94% 30.15 in 10.0 mi SSW 5.8 mph - N/A   Clear
5:15 AM 57.2 °F 53.6 °F 88% 30.16 in 10.0 mi SW 4.6 mph - N/A   Clear
5:35 AM 55.4 °F 53.6 °F 94% 30.16 in 10.0 mi SW 3.5 mph - N/A   Clear
5:55 AM 55.4 °F 53.6 °F 94% 30.16 in 10.0 mi WSW 3.5 mph - N/A   Scattered Clouds
6:15 AM 53.6 °F 53.6 °F 100% 30.16 in 10.0 mi SW 3.5 mph - N/A   Scattered Clouds
6:35 AM 53.6 °F 53.6 °F 100% 30.16 in 10.0 mi SSW 5.8 mph - N/A   Scattered Clouds
7:15 AM 55.4 °F 53.6 °F 94% 30.17 in 10.0 mi South 5.8 mph - N/A   Clear
7:35 AM 55.4 °F 55.4 °F 100% 30.17 in 10.0 mi SSW 3.5 mph - N/A   Clear
7:55 AM 55.4 °F 53.6 °F 94% 30.18 in 10.0 mi SW 3.5 mph - N/A   Clear
8:15 AM 55.4 °F 55.4 °F 100% 30.18 in 10.0 mi SW 4.6 mph - N/A   Clear
8:35 AM 59.0 °F 55.4 °F 88% 30.17 in 10.0 mi SSW 6.9 mph - N/A   Clear
8:55 AM 59.0 °F 55.4 °F 88% 30.18 in 10.0 mi SW 9.2 mph - N/A   Clear
9:15 AM 60.8 °F 55.4 °F 82% 30.19 in 10.0 mi WSW 9.2 mph - N/A   Clear
9:55 AM 64.4 °F 55.4 °F 73% 30.19 in 10.0 mi WSW 9.2 mph - N/A   Clear
10:15 AM 66.2 °F 55.4 °F 68% 30.19 in 10.0 mi SW 8.1 mph - N/A   Clear
10:35 AM 68.0 °F 55.4 °F 64% 30.19 in 10.0 mi WSW 11.5 mph 17.3 mph N/A   Clear
10:55 AM 69.8 °F 55.4 °F 60% 30.19 in 10.0 mi WSW 9.2 mph - N/A   Clear
11:15 AM 69.8 °F 55.4 °F 60% 30.18 in 10.0 mi West 8.1 mph 19.6 mph N/A   Clear
11:35 AM 71.6 °F 55.4 °F 57% 30.17 in 10.0 mi WSW 6.9 mph 16.1 mph N/A   Clear
11:55 AM 71.6 °F 55.4 °F 57% 30.16 in 10.0 mi WSW 10.4 mph - N/A   Clear
12:15 PM 73.4 °F 55.4 °F 53% 30.15 in 10.0 mi SW 9.2 mph - N/A   Clear
12:35 PM 73.4 °F 55.4 °F 53% 30.14 in 10.0 mi WSW 10.4 mph - N/A   Clear
12:55 PM 73.4 °F 55.4 °F 53% 30.13 in 10.0 mi WSW 5.8 mph - N/A   Clear
1:15 PM 73.4 °F 55.4 °F 53% 30.13 in 10.0 mi West 10.4 mph - N/A   Clear
1:35 PM 73.4 °F 55.4 °F 53% 30.12 in 10.0 mi WSW 8.1 mph - N/A   Clear
1:55 PM 73.4 °F 55.4 °F 53% 30.11 in 10.0 mi West 8.1 mph - N/A   Clear
2:15 PM 75.2 °F 55.4 °F 50% 30.11 in 10.0 mi SW 8.1 mph - N/A   Scattered Clouds
2:35 PM 75.2 °F 55.4 °F 50% 30.10 in 10.0 mi SW 9.2 mph - N/A   Scattered Clouds
2:55 PM 75.2 °F 55.4 °F 50% 30.10 in 10.0 mi WSW 9.2 mph - N/A   Scattered Clouds
3:15 PM 73.4 °F 55.4 °F 53% 30.10 in 10.0 mi SSW 5.8 mph - N/A   Clear
3:35 PM 73.4 °F 55.4 °F 53% 30.09 in 10.0 mi SSW 6.9 mph - N/A   Scattered Clouds
3:55 PM 73.4 °F 55.4 °F 53% 30.09 in 10.0 mi SW 6.9 mph - N/A   Scattered Clouds
4:15 PM 73.4 °F 53.6 °F 50% 30.09 in 10.0 mi SW 8.1 mph - N/A   Scattered Clouds
4:55 PM 71.6 °F 53.6 °F 53% 30.09 in 10.0 mi SW 6.9 mph - N/A   Clear
5:15 PM 69.8 °F 53.6 °F 56% 30.09 in 10.0 mi SSW 5.8 mph - N/A   Clear
5:35 PM 68.0 °F 53.6 °F 60% 30.09 in 10.0 mi SSW 5.8 mph - N/A   Clear
5:55 PM 62.6 °F 55.4 °F 77% 30.09 in 10.0 mi South 5.8 mph - N/A   Clear
6:15 PM 62.6 °F 53.6 °F 72% 30.09 in 10.0 mi South 5.8 mph - N/A   Clear
6:35 PM 62.6 °F 53.6 °F 72% 30.10 in 10.0 mi SSW 5.8 mph - N/A   Clear
7:15 PM 60.8 °F 53.6 °F 77% 30.10 in 10.0 mi South 8.1 mph - N/A   Clear
7:35 PM 62.6 °F 53.6 °F 72% 30.09 in 10.0 mi South 6.9 mph - N/A   Clear
7:55 PM 62.6 °F 53.6 °F 72% 30.08 in 10.0 mi South 6.9 mph - N/A   Clear
8:15 PM 62.6 °F 53.6 °F 72% 30.10 in 10.0 mi SSW 5.8 mph - N/A   Clear
8:35 PM 60.8 °F 53.6 °F 77% 30.10 in 10.0 mi SSW 3.5 mph - N/A   Clear
8:55 PM 60.8 °F 53.6 °F 77% 30.11 in 10.0 mi SW 3.5 mph - N/A   Clear
9:15 PM 59.0 °F 53.6 °F 82% 30.11 in 10.0 mi Calm Calm - N/A   Clear
9:35 PM 59.0 °F 53.6 °F 82% 30.10 in 10.0 mi SSW 4.6 mph - N/A   Mostly Cloudy
9:55 PM 60.8 °F 53.6 °F 77% 30.10 in 10.0 mi South 5.8 mph - N/A   Overcast
10:15 PM 60.8 °F 53.6 °F 77% 30.10 in 10.0 mi South 5.8 mph - N/A   Overcast
10:35 PM 60.8 °F 53.6 °F 77% 30.10 in 10.0 mi SSW 6.9 mph - N/A   Scattered Clouds
10:55 PM 60.8 °F 53.6 °F 77% 30.09 in 10.0 mi SSW 6.9 mph - N/A   Clear
11:15 PM 60.8 °F 53.6 °F 77% 30.09 in 10.0 mi SW 4.6 mph - N/A   Clear
11:35 PM 59.0 °F 53.6 °F 82% 30.08 in 10.0 mi SSW 4.6 mph - N/A   Clear
11:55 PM 59.0 °F 53.6 °F 82% 30.08 in 10.0 mi SSW 4.6 mph - N/A   Scattered Clouds